timestamp,wind_dir_avg,wind_spd_avg,wind_spd_max_dir,wind_spd_gust,battery_voltage,lat,long
2020-11-26 00:04:01+00:00,260.0,6.35,271.0,7.01,12.57,47.59359,-54.27349
2020-11-26 00:14:01+00:00,265.0,6.77,266.0,8.63,12.57,47.59359,-54.27349
2020-11-26 00:24:01+00:00,253.0,6.52,251.0,7.79,12.57,47.59359,-54.27349
2020-11-26 00:34:01+00:00,248.0,5.4,248.0,6.69,12.57,47.59359,-54.27349
2020-11-26 00:44:01+00:00,241.0,5.42,231.0,6.2,12.57,47.59359,-54.27349
2020-11-26 00:54:01+00:00,245.0,6.11,241.0,7.38,12.57,47.59359,-54.27349
2020-11-26 01:04:01+00:00,228.0,5.67,227.0,6.38,12.57,47.59359,-54.27349
2020-11-26 01:14:01+00:00,241.0,6.62,241.0,7.22,12.49,47.59359,-54.27349
2020-11-26 01:24:01+00:00,237.0,5.77,241.0,6.57,12.49,47.59359,-54.27349
2020-11-26 01:34:01+00:00,239.0,6.18,237.0,7.45,12.49,47.59359,-54.27349
2020-11-26 01:44:01+00:00,244.0,5.8,236.0,6.62,12.49,47.59359,-54.27349
2020-11-26 01:54:01+00:00,247.0,6.31,251.0,7.52,12.49,47.59359,-54.27349
2020-11-26 02:04:01+00:00,246.0,5.71,245.0,6.68,12.49,47.59359,-54.27349
2020-11-26 02:14:01+00:00,232.0,5.2,238.0,6.27,12.49,47.59359,-54.27349
2020-11-26 02:24:01+00:00,240.0,7.42,242.0,8.79,12.49,47.59359,-54.27349
2020-11-26 02:34:01+00:00,238.0,6.32,241.0,7.51,12.49,47.59359,-54.27349
2020-11-26 02:44:01+00:00,237.0,9.41,240.0,10.54,12.49,47.59359,-54.27349
2020-11-26 02:54:01+00:00,242.0,9.1,245.0,11.31,12.49,47.59359,-54.27349
2020-11-26 03:04:01+00:00,252.0,9.33,252.0,10.9,12.49,47.59359,-54.27349
2020-11-26 03:14:01+00:00,251.0,8.71,243.0,10.87,12.49,47.59359,-54.27349
2020-11-26 03:24:01+00:00,254.0,8.05,260.0,9.48,12.49,47.59359,-54.27349
2020-11-26 03:34:01+00:00,267.0,6.84,270.0,8.05,12.49,47.59359,-54.27349
2020-11-26 03:44:01+00:00,271.0,5.52,271.0,6.31,12.49,47.59359,-54.27349
2020-11-26 03:54:01+00:00,273.0,5.8,275.0,6.81,12.49,47.59359,-54.27349
2020-11-26 04:04:01+00:00,272.0,6.15,280.0,7.29,12.49,47.59359,-54.27349
2020-11-26 04:14:01+00:00,287.0,6.82,291.0,8.09,12.41,47.59359,-54.27349
2020-11-26 04:24:01+00:00,279.0,5.98,284.0,7.26,12.41,47.59359,-54.27349
2020-11-26 04:34:01+00:00,301.0,5.86,295.0,6.62,12.41,47.59359,-54.27349
2020-11-26 04:44:01+00:00,284.0,4.9,283.0,5.74,12.41,47.59359,-54.27349
2020-11-26 04:54:01+00:00,280.0,5.25,282.0,6.54,12.41,47.59359,-54.27349
2020-11-26 05:04:01+00:00,278.0,5.36,282.0,7.09,12.41,47.59359,-54.27349
2020-11-26 05:14:01+00:00,272.0,4.83,273.0,5.79,12.41,47.59359,-54.27349
2020-11-26 05:24:01+00:00,280.0,3.95,285.0,4.65,12.41,47.59359,-54.27349
2020-11-26 05:34:01+00:00,253.0,4.34,250.0,5.56,12.41,47.59359,-54.27349
2020-11-26 05:44:01+00:00,252.0,4.24,255.0,5.05,12.41,47.59359,-54.27349
2020-11-26 05:54:01+00:00,239.0,4.14,234.0,4.83,12.41,47.59359,-54.27349
2020-11-26 06:04:01+00:00,252.0,5.59,250.0,6.48,12.41,47.59359,-54.27349
2020-11-26 06:14:01+00:00,261.0,4.82,264.0,5.93,12.41,47.59359,-54.27349
2020-11-26 06:24:01+00:00,246.0,5.03,244.0,5.83,12.41,47.59359,-54.27349
2020-11-26 06:34:01+00:00,259.0,4.39,264.0,5.51,12.41,47.59359,-54.27349
2020-11-26 06:44:01+00:00,259.0,5.05,257.0,6.7,12.41,47.59359,-54.27349
2020-11-26 06:54:01+00:00,243.0,6.18,236.0,6.85,12.41,47.59359,-54.27349
2020-11-26 07:04:01+00:00,235.0,7.86,232.0,9.59,12.41,47.59359,-54.27349
2020-11-26 07:14:01+00:00,251.0,6.47,255.0,7.91,12.41,47.59359,-54.27349
2020-11-26 07:24:01+00:00,237.0,6.46,237.0,7.73,12.41,47.59359,-54.27349
2020-11-26 07:34:01+00:00,235.0,5.72,246.0,6.33,12.41,47.59359,-54.27349
2020-11-26 07:44:01+00:00,241.0,7.84,244.0,9.11,12.41,47.59359,-54.27349
2020-11-26 07:54:01+00:00,228.0,5.61,223.0,7.36,12.41,47.59359,-54.27349
2020-11-26 08:04:01+00:00,234.0,7.8,235.0,8.87,12.41,47.59359,-54.27349
2020-11-26 08:14:01+00:00,229.0,6.53,226.0,7.64,12.41,47.59359,-54.27349
2020-11-26 08:24:01+00:00,234.0,8.54,237.0,10.17,12.41,47.59359,-54.27349
2020-11-26 08:34:01+00:00,233.0,7.58,231.0,8.9,12.41,47.59359,-54.27349
2020-11-26 08:44:01+00:00,228.0,7.01,224.0,8.38,12.41,47.59359,-54.27349
2020-11-26 08:54:01+00:00,224.0,7.45,221.0,9.67,12.41,47.59359,-54.27349
2020-11-26 09:04:01+00:00,228.0,7.27,220.0,8.12,12.41,47.59359,-54.27349
2020-11-26 09:14:01+00:00,227.0,7.84,221.0,8.65,12.33,47.59359,-54.27349
2020-11-26 09:24:01+00:00,227.0,8.29,227.0,9.81,12.33,47.59359,-54.27349
2020-11-26 09:34:01+00:00,225.0,8.5,220.0,9.55,12.33,47.59359,-54.27349
2020-11-26 09:44:01+00:00,230.0,7.36,230.0,8.39,12.33,47.59359,-54.27349
2020-11-26 09:54:01+00:00,219.0,8.02,217.0,8.83,12.33,47.59359,-54.27349
2020-11-26 10:04:01+00:00,219.0,7.88,218.0,9.18,12.33,47.59359,-54.27349
2020-11-26 10:14:01+00:00,230.0,7.75,231.0,10.28,12.33,47.59359,-54.27349
2020-11-26 10:24:01+00:00,225.0,8.46,223.0,9.97,12.33,47.59359,-54.27349
2020-11-26 10:34:01+00:00,229.0,7.59,229.0,9.45,12.33,47.59359,-54.27349
2020-11-26 10:44:01+00:00,235.0,8.07,235.0,9.77,12.33,47.59359,-54.27349
2020-11-26 10:54:01+00:00,230.0,8.72,217.0,10.64,12.33,47.59359,-54.27349
2020-11-26 11:04:01+00:00,228.0,8.43,230.0,9.29,12.33,47.59359,-54.27349
2020-11-26 11:14:01+00:00,227.0,8.87,231.0,10.36,12.33,47.59359,-54.27349
2020-11-26 11:24:01+00:00,234.0,7.91,231.0,9.2,12.33,47.59359,-54.27349
2020-11-26 11:34:01+00:00,222.0,8.81,231.0,11.5,12.33,47.59359,-54.27349
2020-11-26 11:44:01+00:00,213.0,10.25,209.0,11.98,12.33,47.59359,-54.27349
2020-11-26 11:54:01+00:00,219.0,10.27,218.0,11.41,12.33,47.59359,-54.27349
2020-11-26 12:04:01+00:00,213.0,10.64,210.0,11.75,12.33,47.59359,-54.27349
2020-11-26 12:14:01+00:00,216.0,11.73,216.0,12.8,12.57,47.59359,-54.27349
2020-11-26 12:24:01+00:00,210.0,10.17,215.0,11.31,12.57,47.59359,-54.27349
2020-11-26 12:34:01+00:00,208.0,11.01,203.0,12.84,12.57,47.59359,-54.27349
2020-11-26 12:44:01+00:00,215.0,12.03,216.0,14.13,12.57,47.59359,-54.27349
2020-11-26 12:54:01+00:00,216.0,11.65,218.0,12.96,12.57,47.59359,-54.27349
2020-11-26 13:04:01+00:00,217.0,11.45,216.0,13.24,12.57,47.59359,-54.27349
2020-11-26 13:14:01+00:00,215.0,11.0,218.0,12.73,14.0,47.59359,-54.27349
2020-11-26 13:24:01+00:00,214.0,11.48,213.0,12.75,14.0,47.59359,-54.27349
2020-11-26 13:34:01+00:00,212.0,11.18,212.0,12.76,14.0,47.59359,-54.27349
2020-11-26 13:44:01+00:00,212.0,10.16,208.0,12.11,14.0,47.59359,-54.27349
2020-11-26 13:54:01+00:00,203.0,11.83,203.0,13.33,14.0,47.59359,-54.27349
2020-11-26 14:04:01+00:00,212.0,12.45,214.0,14.05,14.0,47.59359,-54.27349
2020-11-26 14:14:01+00:00,210.0,11.72,213.0,13.57,13.44,47.59359,-54.27349
2020-11-26 14:24:01+00:00,211.0,12.72,207.0,14.19,13.44,47.59359,-54.27349
2020-11-26 14:34:01+00:00,214.0,12.19,213.0,14.07,13.44,47.59359,-54.27349
2020-11-26 14:44:01+00:00,214.0,11.38,216.0,12.82,13.44,47.59359,-54.27349
2020-11-26 14:54:01+00:00,210.0,10.73,211.0,12.21,13.44,47.59359,-54.27349
2020-11-26 15:04:01+00:00,200.0,10.57,197.0,12.96,13.44,47.59359,-54.27349
2020-11-26 15:14:01+00:00,210.0,10.78,211.0,12.28,13.53,47.59359,-54.27349
2020-11-26 15:24:01+00:00,205.0,11.16,202.0,13.53,13.53,47.59359,-54.27349
2020-11-26 15:34:01+00:00,206.0,10.67,212.0,12.39,13.53,47.59359,-54.27349
2020-11-26 15:44:01+00:00,211.0,11.25,213.0,12.45,13.53,47.59359,-54.27349
2020-11-26 15:54:01+00:00,206.0,10.61,209.0,12.35,13.53,47.59359,-54.27349
2020-11-26 16:04:01+00:00,213.0,10.43,214.0,11.51,13.53,47.59359,-54.27349
2020-11-26 16:14:01+00:00,211.0,10.1,216.0,11.31,13.53,47.59359,-54.27349
2020-11-26 16:24:01+00:00,203.0,11.18,195.0,12.92,13.53,47.59359,-54.27349
2020-11-26 16:34:01+00:00,203.0,10.02,200.0,10.79,13.53,47.59359,-54.27349
2020-11-26 16:44:01+00:00,204.0,9.97,204.0,10.71,13.53,47.59359,-54.27349
2020-11-26 16:54:01+00:00,198.0,9.79,195.0,11.37,13.53,47.59359,-54.27349
2020-11-26 17:04:01+00:00,192.0,9.36,193.0,9.98,13.53,47.59359,-54.27349
2020-11-26 17:14:01+00:00,204.0,9.87,205.0,11.82,13.13,47.59359,-54.27349
2020-11-26 17:24:01+00:00,210.0,11.3,210.0,12.69,13.13,47.59359,-54.27349
2020-11-26 17:34:01+00:00,207.0,11.59,202.0,12.73,13.13,47.59359,-54.27349
2020-11-26 17:44:01+00:00,214.0,11.71,217.0,13.62,13.13,47.59359,-54.27349
2020-11-26 17:54:01+00:00,221.0,9.76,218.0,10.94,13.13,47.59359,-54.27349
2020-11-26 18:04:01+00:00,217.0,10.79,219.0,12.17,13.13,47.59359,-54.27349
2020-11-26 18:14:01+00:00,222.0,9.48,222.0,11.77,12.97,47.59359,-54.27349
2020-11-26 18:24:01+00:00,232.0,7.39,231.0,10.88,12.97,47.59359,-54.27349
2020-11-26 18:34:01+00:00,241.0,5.93,247.0,6.63,12.97,47.59359,-54.27349
2020-11-26 18:44:01+00:00,242.0,6.1,245.0,6.87,12.97,47.59359,-54.27349
2020-11-26 18:54:01+00:00,234.0,7.51,235.0,8.47,12.97,47.59359,-54.27349
2020-11-26 19:04:01+00:00,232.0,5.28,232.0,6.27,12.97,47.59359,-54.27349
2020-11-26 19:14:01+00:00,233.0,5.99,233.0,6.64,12.89,47.59359,-54.27349
2020-11-26 19:24:01+00:00,232.0,5.84,236.0,6.45,12.89,47.59359,-54.27349
2020-11-26 19:34:01+00:00,235.0,5.17,234.0,6.56,12.89,47.59359,-54.27349
2020-11-26 19:44:01+00:00,236.0,6.38,235.0,6.9,12.89,47.59359,-54.27349
2020-11-26 19:54:01+00:00,244.0,6.51,244.0,7.5,12.89,47.59359,-54.27349
2020-11-26 20:04:01+00:00,247.0,6.94,242.0,7.79,12.89,47.59359,-54.27349
2020-11-26 20:14:01+00:00,259.0,6.87,260.0,7.37,12.65,47.59359,-54.27349
2020-11-26 20:24:01+00:00,257.0,6.85,259.0,7.41,12.65,47.59359,-54.27349
2020-11-26 20:34:01+00:00,256.0,7.09,259.0,7.83,12.65,47.59359,-54.27349
2020-11-26 20:44:01+00:00,258.0,7.26,261.0,7.83,12.65,47.59359,-54.27349
2020-11-26 20:54:01+00:00,275.0,6.12,271.0,6.83,12.65,47.59359,-54.27349
2020-11-26 21:04:01+00:00,287.0,4.99,287.0,5.47,12.65,47.59359,-54.27349
2020-11-26 21:14:01+00:00,284.0,4.7,285.0,5.14,12.49,47.59359,-54.27349
2020-11-26 21:24:01+00:00,270.0,3.6,273.0,4.24,12.49,47.59359,-54.27349
2020-11-26 21:34:01+00:00,261.0,2.68,253.0,3.31,12.49,47.59359,-54.27349
2020-11-26 21:44:01+00:00,248.0,3.26,248.0,4.1,12.49,47.59359,-54.27349
2020-11-26 21:54:01+00:00,278.0,3.33,279.0,3.82,12.49,47.59359,-54.27349
2020-11-26 22:04:01+00:00,270.0,3.27,274.0,3.85,12.49,47.59359,-54.27349
2020-11-26 22:14:01+00:00,296.0,3.0,302.0,3.36,12.57,47.59359,-54.27349
2020-11-26 22:24:01+00:00,322.0,2.6,320.0,2.85,12.57,47.59359,-54.27349
2020-11-26 22:34:01+00:00,359.0,3.05,358.0,3.43,12.57,47.59359,-54.27349
2020-11-26 22:44:01+00:00,359.0,3.92,5.0,4.61,12.57,47.59359,-54.27349
2020-11-26 22:54:01+00:00,0.0,2.19,350.0,2.55,12.57,47.59359,-54.27349
2020-11-26 23:04:01+00:00,356.0,2.6,346.0,3.07,12.57,47.59359,-54.27349
2020-11-26 23:14:01+00:00,356.0,2.33,3.0,2.73,12.57,47.59359,-54.27349
2020-11-26 23:24:01+00:00,345.0,1.4,346.0,1.74,12.57,47.59359,-54.27349
2020-11-26 23:34:01+00:00,357.0,1.97,3.0,2.42,12.57,47.59359,-54.27349
2020-11-26 23:44:01+00:00,355.0,2.49,346.0,2.89,12.57,47.59359,-54.27349
2020-11-26 23:54:01+00:00,16.0,2.29,12.0,2.89,12.57,47.59359,-54.27349
